SCP
0 0 0 0 0 0 0 0 0 0 0 0 0 0 0 0 0 0 0 0 0 0 0 0 0 0 0 0 0 0 0 0 0 0 0 0 0 0 0 0 0 0 0
0 0 0 0 0 0 0 0 0 0 0 0 0 0 0 0 0 0 0 0 0 0 0 0 0 0 0 0 0 0 0 0 0 0 0 0 0 0 0 0 0 0 0
0 0 0 0 0 0 0 0 0 0 0 0 0 0 0 0 0 0 0 0 0 0 0 0 0 0 0 0 0 0 0 0 0 0 0 0 0 0 0 0 0 0 0
0 0 0 0 0 0 0 0 0 0 0 0 0 0 0 0 0 0 0 0 0 0 0 0 0 0 0 0 0 0 0 0 0 0 0 0 0 0 0 0 0 0 0
0 0 0 0 0 0 0 0 0 0 0 0 0 0 0 0 0 0 0 0 0 0 0 0 0 0 0 0 0 0 0 0 0 0 0 0 0 0 0 0 0 0 0
0 0 0 0 0 0 0 0 0 0 0 0 0 0 0 0 0 0 0 0 0 0 0 0 0 0 0 0 0 0 0 0 0 0 0 0 0 0 0 0 0 0 0
0 0 0 0 0 0 0 0 0 0 0 0 0 0 0 0 0 0 0 0 0 0 0 0 0 0 0 0 0 0 0 0 0 0 0 0 0 0 0 0 0 0 1
0 0 0 0 0 0 0 0 0 0 0 0 0 0 0 0 0 0 0 0 0 0 0 0 0 0 0 0 0 0 0 0 0 0 0 0 0 0 0 0 0 1 1
0 0 0 0 0 0 0 0 0 0 0 0 0 0 0 0 0 0 0 0 0 0 0 0 0 0 0 0 0 0 0 0 0 0 0 0 0 0 0 0 0 1 1
0 0 0 0 0 0 0 0 0 0 0 0 0 0 0 0 0 0 0 0 0 0 0 0 0 0 0 0 0 0 0 0 0 0 0 0 0 0 0 0 1 1 1
0 0 0 0 0 0 0 0 0 0 0 0 0 0 0 0 0 0 0 0 0 0 0 0 0 0 0 0 0 0 0 0 0 0 0 0 0 0 0 0 1 1 1
0 0 0 0 0 0 0 0 0 0 0 0 0 0 0 0 0 0 0 0 0 0 0 0 0 0 0 0 0 0 0 0 0 0 0 1 1 1 0 0 1 1 1
0 0 0 0 0 0 0 0 0 0 0 0 0 0 0 0 0 0 0 0 0 0 0 0 0 0 0 0 0 0 0 0 0 0 0 1 1 1 1 1 1 1 1
0 0 0 0 0 0 0 0 0 0 0 0 0 0 0 0 0 0 0 0 0 0 0 0 0 0 0 0 0 0 0 0 0 0 0 0 1 1 1 1 1 1 1
0 0 0 0 0 0 0 0 0 0 0 0 0 0 0 0 0 0 0 0 0 0 0 0 0 0 0 0 0 0 0 0 0 0 0 0 0 0 0 0 1 1 1
0 0 0 0 0 0 0 0 0 0 0 0 0 0 0 0 0 0 0 0 0 0 0 0 0 0 0 0 0 0 0 0 0 0 0 0 0 0 0 0 0 0 0
0 0 0 0 0 0 0 0 0 0 0 0 0 0 0 0 0 0 0 0 0 0 0 0 0 0 0 0 0 0 0 0 0 0 0 0 0 0 0 0 0 0 0
0 0 0 0 0 0 0 0 0 0 0 0 0 0 0 0 0 0 0 0 0 0 0 0 0 0 0 0 0 0 0 0 0 0 0 0 0 0 0 0 0 0 0
0 0 0 0 0 0 0 0 0 0 0 0 0 0 0 0 0 0 0 0 0 0 0 0 0 0 0 0 0 0 0 0 0 0 0 0 0 0 0 0 0 0 0
0 0 0 0 0 0 0 0 0 0 0 0 0 0 0 0 0 0 0 0 0 0 0 0 0 0 0 0 0 0 0 0 0 0 0 0 0 0 0 0 0 0 0
0 0 0 0 0 0 0 0 0 0 0 0 0 0 0 0 0 0 0 0 0 0 0 0 0 0 0 0 0 0 0 0 0 0 0 0 0 0 0 0 0 0 0
0 0 0 0 0 0 0 0 0 0 0 0 0 0 0 0 0 0 0 0 0 0 0 0 0 0 0 0 0 0 0 0 0 0 0 0 0 0 0 0 0 0 0
0 0 0 0 0 0 0 0 0 0 0 0 0 0 0 0 0 0 0 0 0 0 0 0 0 0 0 0 0 0 0 0 0 0 0 0 0 0 0 0 0 0 0
0 0 0 0 0 0 0 0 0 0 0 0 0 0 0 0 0 0 0 0 0 0 0 0 0 0 0 0 0 0 0 0 0 0 0 0 0 0 0 0 0 0 0
0 0 0 0 0 0 0 0 0 0 0 0 0 0 0 0 0 0 0 0 0 0 0 0 0 0 0 0 0 0 0 -0 -0 -0 -0 0 0 0 0 0 0 0 0
0 0 0 0 0 0 0 0 0 0 0 0 0 0 0 0 0 0 0 0 0 0 0 0 0 0 0 0 0 0 -0 -0 -0 -0 -0 -0 0 0 0 0 0 0 0
Wind_Speed
4 4 3 3 4 4 5 5 6 7 7 7 7 8 9 9 9 9 8 18 22 24 25 26 27 27 28 28 28 27 27 27 26 26 26 26 26 25 25 25 25 24 24
5 4 4 4 5 5 6 6 7 7 7 6 8 9 10 9 10 11 10 12 21 24 25 26 28 29 30 30 30 29 29 29 29 28 28 28 28 27 27 27 27 26 26
5 5 5 5 6 5 6 6 6 6 7 7 10 10 10 10 11 12 11 10 11 19 25 28 29 30 31 31 32 32 31 30 31 31 31 30 30 30 30 29 29 28 28
6 5 5 7 6 4 5 5 5 6 8 8 9 9 9 9 11 12 11 11 10 10 17 26 29 30 32 32 33 34 34 30 29 30 32 32 32 32 32 32 31 31 30
5 5 6 7 5 4 5 6 6 6 9 9 9 9 8 9 11 12 13 14 13 13 12 19 26 28 30 33 34 35 35 33 29 28 29 31 33 34 35 34 34 33 33
5 5 5 7 6 5 5 5 8 7 8 10 10 11 10 10 10 11 13 13 13 15 15 15 14 15 25 31 33 35 36 36 33 31 30 30 32 33 36 36 36 35 35
4 3 4 5 5 5 7 7 7 8 8 6 6 8 9 10 11 12 11 12 13 15 14 15 13 12 12 24 30 33 34 35 36 35 34 34 34 34 35 38 38 37 37
6 4 4 4 5 5 6 7 7 6 6 4 4 6 7 5 8 10 10 11 13 12 13 15 14 14 12 10 15 27 30 33 34 35 35 36 36 37 37 38 38 38 38
8 8 7 6 6 5 5 7 6 7 8 6 5 7 8 7 5 5 8 10 11 10 11 11 14 14 14 12 12 18 26 31 34 34 34 34 35 36 37 38 38 38 37
8 9 8 7 7 6 6 6 6 6 7 7 6 5 8 9 10 8 5 6 8 10 11 10 11 13 14 12 14 20 25 29 33 34 34 34 34 35 36 37 37 38 36
8 9 9 8 7 6 7 7 7 7 5 5 6 7 8 8 8 11 13 7 6 6 8 9 9 10 12 13 13 18 26 31 34 35 35 34 34 35 35 35 36 36 35
6 9 9 8 7 7 7 7 7 8 7 7 6 6 6 6 8 8 12 13 11 8 8 8 8 9 9 11 15 21 25 30 34 35 36 36 35 35 35 36 35 35 34
5 9 9 8 8 8 8 8 8 8 8 8 8 7 6 7 7 8 10 12 13 10 8 7 7 8 8 8 9 17 20 27 31 35 36 37 36 34 34 35 36 35 34
5 8 9 9 9 10 10 9 7 8 8 8 9 8 7 7 7 8 8 10 13 12 9 9 5 6 6 7 11 17 14 20 25 30 34 36 35 33 31 32 33 32 31
6 8 8 9 9 10 10 10 8 10 10 8 8 8 8 8 8 7 7 7 9 14 15 14 8 7 6 8 14 13 14 19 24 27 29 30 30 30 31 30 29 28 29
7 8 8 9 10 10 11 10 9 10 11 8 8 11 10 9 9 7 6 7 7 9 13 13 12 10 10 12 15 14 15 22 25 28 28 27 26 28 29 30 29 28 28
8 8 9 10 11 11 11 11 11 11 12 11 10 12 14 13 8 8 7 7 8 7 11 14 12 12 14 14 13 12 13 14 14 23 28 28 26 25 27 27 28 28 29
7 8 9 9 10 11 10 11 11 11 11 12 12 12 13 11 9 9 8 10 9 7 7 14 15 12 13 13 15 15 13 12 12 19 25 26 25 23 23 24 26 27 27
9 9 9 10 10 11 11 9 9 11 10 10 9 11 13 12 10 9 11 11 8 8 6 10 14 12 12 10 13 14 14 12 12 13 18 20 22 23 23 23 23 24 25
8 9 10 10 10 12 11 11 13 12 11 9 8 10 11 11 13 13 12 10 9 10 9 9 11 11 12 11 10 12 14 10 11 10 15 16 18 22 23 22 22 21 22
10 9 11 11 11 11 11 16 15 14 13 11 10 9 11 18 22 18 16 14 13 12 11 12 13 13 12 11 11 11 15 13 12 8 11 11 10 9 10 15 17 20 23
9 10 10 12 12 12 22 26 22 14 12 12 14 13 14 14 18 25 28 28 25 19 17 16 15 17 18 16 14 13 14 16 15 5 7 8 5 8 8 8 15 19 21
10 10 11 11 12 15 25 27 27 19 12 12 13 14 14 15 20 13 20 26 22 28 29 21 18 19 20 18 17 17 16 18 18 11 11 14 8 11 9 11 20 21 22
9 10 11 12 12 15 25 27 28 15 11 12 13 14 14 13 14 21 18 17 16 17 22 18 15 17 17 16 15 17 18 19 18 13 11 13 8 8 6 6 16 20 18
10 10 11 12 13 15 23 27 27 12 11 13 13 13 15 13 25 31 22 20 20 17 22 28 30 27 29 29 24 15 14 14 15 12 6 7 5 4 3 4 8 14 12
9 11 12 11 11 13 21 26 28 12 13 13 12 11 18 23 28 31 21 17 19 18 19 20 19 19 17 19 24 15 12 12 13 11 5 4 3 2 3 2 3 2 7
Wind_Direction
223 224 231 235 238 234 237 244 247 250 252 254 250 247 248 246 248 246 254 257 260 262 264 262 261 260 260 256 248 246 247 248 247 245 245 245 244 243 242 241 241 240 239
226 230 240 242 240 237 239 242 244 249 253 254 257 249 249 248 249 246 245 252 254 257 259 260 258 257 258 259 257 250 246 246 247 246 246 246 246 246 245 243 243 242 242
227 236 248 251 249 243 246 252 254 254 261 256 258 255 252 250 249 248 247 246 250 254 254 256 257 256 256 257 258 258 254 248 246 245 244 244 243 244 244 244 243 243 243
231 238 252 260 256 242 242 250 254 256 260 259 261 261 255 256 254 252 251 250 248 248 251 254 255 256 256 256 256 257 258 256 250 247 246 245 244 243 243 243 242 242 242
240 240 257 267 268 253 247 253 258 247 267 271 267 267 258 253 255 254 252 250 247 247 246 251 251 250 252 254 256 256 256 257 255 252 250 248 247 246 245 245 244 243 242
248 241 258 272 278 270 265 253 262 262 265 274 280 278 270 259 255 253 252 251 249 247 246 248 250 250 249 252 255 256 256 256 256 255 254 253 251 249 248 247 246 245 244
289 264 270 280 280 272 278 276 272 276 275 273 277 279 271 258 254 255 252 252 252 250 246 246 247 245 248 248 250 251 253 255 256 256 255 254 252 251 250 249 248 247 246
21 15 353 332 321 309 306 302 293 287 284 262 257 282 284 264 244 246 248 247 249 250 248 247 247 245 245 245 246 247 249 251 252 254 255 254 252 250 249 249 248 248 247
34 30 23 14 2 357 340 329 318 306 305 295 250 267 288 287 279 250 245 246 246 246 246 246 246 246 245 244 248 250 248 250 253 253 254 255 255 253 250 248 247 247 247
25 19 13 7 360 356 350 342 343 328 319 317 309 270 276 292 297 296 248 249 256 254 253 253 251 248 246 247 246 244 246 248 253 256 256 255 254 255 254 250 247 246 246
16 14 8 2 355 347 339 333 333 331 323 315 315 312 309 305 297 301 301 297 281 270 271 265 262 258 253 248 248 247 247 251 256 259 259 258 256 255 254 252 249 246 246
3 8 360 354 346 341 335 329 325 321 315 309 308 306 308 305 309 304 301 303 298 291 287 282 278 273 265 258 254 251 248 251 257 262 265 264 262 259 256 253 249 247 246
354 357 353 347 344 338 333 329 323 318 311 311 308 306 303 297 297 298 298 301 301 297 284 272 271 278 282 279 275 268 261 257 257 261 265 267 267 264 260 256 252 249 247
340 346 344 341 338 336 334 331 324 319 317 310 308 308 307 302 296 293 292 301 303 302 295 287 279 281 293 298 295 294 288 277 267 265 264 263 262 262 262 262 257 252 249
343 342 336 337 337 336 335 332 328 324 320 313 314 311 309 307 300 292 288 292 299 306 304 303 298 291 296 301 298 298 293 289 285 279 271 263 256 254 256 261 263 259 251
341 338 341 341 339 337 337 332 330 326 325 325 326 318 312 308 303 298 297 297 291 292 295 299 304 309 308 301 293 289 289 289 288 285 282 272 260 251 250 254 258 260 258
339 342 343 342 340 338 336 331 328 330 331 327 322 317 313 311 311 317 313 309 302 296 298 303 307 309 308 306 304 297 295 293 291 286 283 277 268 256 250 250 252 254 255
338 340 341 338 335 333 327 321 322 328 323 322 323 323 324 326 322 320 312 305 296 291 299 304 304 303 303 304 304 303 299 296 292 292 289 285 279 269 259 255 253 252 250
340 341 338 333 329 326 321 315 318 318 314 313 322 327 323 318 311 307 302 296 288 299 288 288 294 298 298 300 302 301 297 294 293 294 295 293 287 280 272 265 261 256 251
334 335 332 328 326 325 320 324 325 320 314 310 314 313 313 312 310 308 304 296 301 301 289 284 289 292 293 292 292 298 299 294 294 295 294 288 279 274 273 271 266 260 255
336 329 327 326 326 324 326 328 324 320 316 315 316 309 308 313 314 315 317 316 312 307 305 303 300 298 294 296 293 293 293 293 285 282 287 283 274 270 271 269 264 258 256
328 324 322 323 324 327 325 327 326 318 315 317 318 316 311 309 312 319 316 313 312 310 309 304 300 297 294 290 289 294 300 297 293 264 263 275 271 273 269 261 263 261 259
321 321 321 321 318 316 323 326 323 321 315 313 310 310 312 312 315 303 305 311 310 308 304 297 291 287 285 288 296 299 295 292 287 285 279 277 257 262 261 264 269 267 265
317 318 318 314 311 314 322 322 321 321 310 304 303 303 304 305 307 312 312 313 307 305 301 298 289 287 291 298 298 296 294 290 283 274 255 267 259 252 252 254 263 263 258
317 315 311 308 309 312 318 320 323 315 308 304 301 303 309 309 311 320 323 316 312 309 309 308 309 308 308 306 303 299 294 295 296 295 277 263 260 246 251 254 256 248 210
309 309 307 305 303 305 311 321 324 314 310 308 306 304 310 314 317 323 322 317 314 311 309 309 308 306 301 296 298 295 296 297 300 298 282 264 257 231 268 315 318 254 173